Location: Creekwood Estates
(36.3334°N, 86.6133°W)
Time: 02:56:50
(UTC+00:00)

Daily predictions for brighter satellites

Satellite Brightness Start Highest point End
(mag) Time Altitude Azimuth Time Altitude Azimuth Time Altitude Azimuth
SL-24 R/B 4.1 00:05:28 10° SSE 00:09:46 85° ENE 00:14:21 10° N
BREEZE-M DEB (TANK) 3.1 00:08:11 10° SSW 00:10:35 40° SE 00:15:36 10° NE
Cosmos 1782 Rocket 3.6 00:07:27 10° S 00:11:47 65° E 00:16:11 10° NNE
Cosmos 1844 Rocket 3.7 00:08:30 10° SSE 00:12:45 23° E 00:17:01 10° NE
Cosmos 1908 Rocket 4.2 00:09:25 10° SSW 00:13:41 60° W 00:18:01 10° N
Meteor 2-9 Rocket 4.3 00:08:55 10° S 00:14:46 78° E 00:20:35 10° NNE
Tsikada Rocket 4.2 00:09:29 10° N 00:15:39 82° W 00:21:49 10° S
ISS -2.4 00:14:10 10° WSW 00:17:21 40° NW 00:20:34 10° NE
CZ-2D R/B 3.2 00:14:26 10° SSE 00:18:18 83° ENE 00:22:13 10° N
Cosmos 807 4.2 00:18:31 10° S 00:21:31 72° E 00:25:00 10° N
Cosmos 2084 Rocket 3.6 00:17:32 10° NNW 00:21:59 63° NE 00:26:29 10° SE
Cosmos 1937 Rocket 3.9 00:17:12 10° SSW 00:22:26 71° WNW 00:27:39 10° NNE
USA 234 4.2 00:21:11 10° ENE 00:26:27 26° ESE 00:31:41 10° S
Cosmos 1939 Rocket 3.9 00:25:23 10° S 00:29:23 51° W 00:33:26 10° NNW
Cosmos 2112 Rocket 4.3 00:24:13 10° NNW 00:29:26 75° WSW 00:34:39 10° S
CZ-2C R/B 0.9 00:26:17 10° W 00:29:59 72° S 00:32:43 15° E
Cosmos 1943 3.2 00:25:04 10° NNW 00:30:43 73° ENE 00:36:22 10° SSE
Cosmos 1680 Rocket 4.2 00:27:22 10° NNW 00:32:30 58° WSW 00:37:38 10° S
CSL-04 Debris 4.2 00:30:40 10° SSE 00:35:57 62° ENE 00:41:16 10° N
Iridium 4 Rocket 4.1 00:32:31 10° SSW 00:37:18 62° W 00:42:35 10° N
Cosmos 1975 Rocket 2.9 00:36:06 10° N 00:40:26 78° E 00:44:44 10° S
CSL-04 Rocket 3.6 00:37:23 10° SSE 00:42:44 68° ENE 00:48:11 10° N
Cosmos 1174 4.3 00:42:16 10° SSW 00:46:47 76° ESE 00:52:36 10° NNE
Cosmos 1603 4.2 00:47:01 10° NNW 00:52:35 61° WSW 00:58:04 10° S
HJ-1C 3.2 00:53:41 10° SSE 00:56:58 89° ENE 01:00:16 10° N
H-2A R/B 1.9 00:52:43 10° SSE 00:57:38 78° ENE 01:02:40 10° N
Cosmos 1072 Rocket 4.5 00:53:14 10° S 00:59:27 87° E 01:05:48 10° N
Sich 1 Rocket 4.2 00:55:54 10° SSW 01:00:19 59° W 01:04:48 10° N
ATLAS 2AS CENTAUR R/B 3.6 00:53:45 10° S 01:00:30 33° ESE 01:07:19 10° NE
BREEZE-M TANK 4.2 00:47:24 10° WSW 01:01:43 62° NNW 01:05:14 14° NE
Meteor 1-12 Rocket 4.3 00:57:14 10° S 01:03:11 89° E 01:09:03 10° N
Nadezhda 4 Rocket 4.2 00:57:49 10° N 01:03:38 44° E 01:07:55 18° SE
Cosmos 2034 Rocket 4.0 00:59:54 10° S 01:06:09 63° E 01:12:25 10° NNE
CENTAUR R/B 4.0 01:03:19 10° NNW 01:10:32 33° NE 01:14:15 24° E
GOES 2 Rocket 4.1 01:08:11 10° SW 01:11:42 26° S 01:12:20 25° SSE
CZ-4 R/B 3.7 01:08:38 10° SSW 01:12:12 26° W 01:15:45 10° NW
Okean 1 Rocket 4.0 01:16:18 31° ENE 01:16:18 31° ENE 01:19:20 10° NNE
Okean 2 Rocket 3.6 01:12:16 10° SSW 01:16:43 63° W 01:21:11 10° N
Ariane Rocket 3.1 01:16:43 33° SE 01:18:40 53° ENE 01:23:36 10° N
Cosmos 1300 Rocket 4.1 01:15:05 10° SSW 01:19:24 59° W 01:23:46 10° N
Cosmos 1707 3.1 01:15:53 10° NNW 01:19:40 63° W 01:23:09 12° S
USA 238 DEB 4.1 01:19:33 10° NNW 01:26:37 50° NE 01:29:18 36° ESE
USA 238 4.1 01:19:40 10° NNW 01:26:43 50° NE 01:29:22 36° ESE
ARGOS 3.3 01:21:38 10° S 01:26:58 75° WSW 01:32:21 10° NNW
DELTA 2 R/B (1) 4.1 01:21:44 10° WNW 01:27:05 50° SSW 01:29:07 34° SSE
Meteor 2-5 Rocket 4.5 01:23:09 10° NNE 01:27:52 33° ENE 01:27:52 33° ENE
In-Cosmos 22 4.1 01:24:37 10° N 01:29:57 83° W 01:34:17 16° S
SJ-6B 3.4 01:33:14 41° NNE 01:33:14 41° NNE 01:35:54 10° N
SL-08 RB Rocket 3.6 01:30:56 33° S 01:33:01 86° W 01:37:35 10° NNW
CZ-2C R/B 2.7 01:30:24 10° NNE 01:36:00 89° WNW 01:41:37 10° SSW
Cosmos 1634 Rocket 4.1 01:37:17 47° E 01:37:37 48° E 01:43:30 10° NNE
USA 186 3.3 01:43:19 33° NW 01:43:19 33° NW 01:45:21 10° NNW
SPOT 3 Rocket 4.4 01:44:55 35° NE 01:44:55 35° NE 01:48:33 10° N
Cosmos 1536 Rocket 3.7 01:40:09 10° NNW 01:44:36 71° W 01:45:33 52° SSW
Cosmos 2285 Rocket 4.0 01:41:29 10° SSW 01:47:46 83° WNW 01:54:09 10° NNE
Cosmos 1025 Rocket 4.1 01:45:16 10° NNW 01:49:25 43° W 01:51:49 22° SSW
Cosmos 1844 4.2 01:46:00 10° SW 01:51:38 59° WNW 01:57:13 10° NNE
NOSS 3-2 (A) 4.0 01:45:52 10° NNW 01:53:43 80° ENE 01:56:29 48° SE
Meteor 2-13 Rocket 4.3 01:48:34 10° N 01:54:45 74° E 01:55:29 66° SE
Cosmos 1844 Rocket 3.8 01:51:04 10° SW 01:56:17 42° WNW 02:01:35 10° N
Cosmos 1092 Rocket 3.8 01:58:21 10° N 02:04:32 85° E 02:05:05 76° SSE
Cosmos 2195 Rocket 4.3 01:59:13 10° N 02:05:23 76° ENE 02:05:23 76° ENE
MetOp-A 4.3 02:07:39 61° SW 02:08:15 66° WSW 02:13:35 10° NNW
Cosmos 2026 Rocket 4.0 02:02:51 10° N 02:08:36 66° NE 02:08:36 66° NE
CZ-2C R/B 3.6 02:06:06 10° W 02:07:04 17° W 02:07:04 17° W
USA 234 3.3 02:04:41 18° NE 02:09:46 75° NW 02:16:17 10° SW
Milstar 3 Cent rocket 3.6 02:10:46 10° WSW 02:14:14 26° SW 02:14:14 26° SW
BREEZE-M DEB (TANK) 4.3 02:05:21 10° WNW 02:22:08 77° SW 02:22:38 73° S
NOSS 3-4 (A) 3.8 02:22:43 10° SW 02:28:30 59° NW 02:34:35 10° NNE
NOSS 3-4 (C) 3.8 02:22:50 10° SW 02:28:36 59° NW 02:34:41 10° NNE
NOSS 3-2 (C) 3.9 02:21:33 10° NNW 02:29:25 85° ENE 02:29:49 81° ESE
Resurs 01 Rocket 4.0 02:36:49 18° NNW 02:36:49 18° NNW 02:37:57 10° NNW
ATLAS 2AS CENTAUR R/B 3.6 02:43:27 10° SW 02:51:10 55° NW 02:58:56 10° NNE
BREEZE-M DEB (TANK) 4.4 02:49:39 10° WNW 02:54:11 63° SW 02:54:11 63° SW
CENTAUR R/B 3.4 02:53:33 10° NW 03:01:27 67° W 03:01:27 67° W
ATLAS 3B R/B 4.0 03:03:26 10° NNW 03:07:18 33° N 03:07:18 33° N
USA 267 3.9 08:17:47 10° NE 08:22:28 48° NNE 08:22:28 48° NNE
Cosmos 1697 Rocket 4.5 08:48:35 22° N 08:48:35 22° N 08:50:48 10° N
MSX 4.5 08:41:21 10° NNE 08:46:57 49° E 08:47:06 49° ESE
Cosmos 1980 Rocket 3.2 08:52:46 38° N 08:52:46 38° N 08:56:19 10° NNE
USA 234 4.5 08:50:18 10° E 08:56:11 38° NNE 09:02:06 10° NNW
BREEZE-M DEB (TANK) 3.9 08:55:56 67° SSW 08:57:02 77° SSE 09:01:28 10° ENE
Cosmos 2322 Rocket 3.8 08:55:33 22° SE 08:57:49 29° ESE 09:02:39 10° NE
Cosmos 2263 Rocket 3.8 08:56:56 10° N 09:02:02 33° ENE 09:07:06 10° SE
SL-16 R/B 3.1 09:05:31 37° SE 09:06:59 45° ESE 09:12:20 10° NE
SL-4 R/B 3.4 09:08:18 42° E 09:08:18 42° E 09:11:46 10° ENE
Cosmos 2228 Rocket 4.4 09:09:42 33° NNE 09:09:42 33° NNE 09:12:13 10° N
ADEOS II 4.3 09:08:11 10° NNW 09:09:07 14° NNW 09:09:07 14° NNW
Cosmos 1934 Rocket 3.7 09:06:28 10° N 09:12:33 85° W 09:12:49 81° SSW
ARIANE 5 R/B 3.9 09:10:13 10° N 09:12:41 27° NNW 09:12:41 27° NNW
COSMOS 2441 4.4 09:13:55 10° NNE 09:18:28 76° NE 09:18:28 76° NE
CZ-2C R/B 3.5 09:16:22 10° NNE 09:21:18 45° E 09:24:58 17° SSE
IDEFIX/ARIANE 42P 3.3 09:16:18 10° N 09:20:03 42° NNW 09:20:03 42° NNW
Cosmos 1763 Rocket 4.0 09:21:34 39° SSE 09:23:17 57° ESE 09:28:30 10° NNE
SJ 16-02 2.1 09:26:00 10° N 09:30:18 51° ENE 09:34:34 10° SSE
Meteor 1-14 Rocket 4.2 09:27:21 10° NNW 09:32:16 57° WNW 09:32:16 57° WNW
Meteor 2-6 Rocket 4.1 09:32:38 58° SW 09:33:41 75° W 09:39:29 10° N
PSLV R/B 3.9 09:29:34 10° NNE 09:33:44 59° E 09:34:43 45° SSE
H-2A R/B 2.3 09:30:14 10° SSE 09:34:31 68° ENE 09:38:56 10° N
DEBRIS 4.2 09:34:58 25° NNE 09:35:34 27° NE 09:39:43 10° E
Meteor 1-5 Rocket 4.2 09:30:25 10° N 09:35:46 74° E 09:41:12 10° SSE
Cosmos 1238 Rocket 3.9 09:31:34 10° NNW 09:37:55 57° W 09:39:04 49° SW
Cosmos 1605 Rocket 3.9 09:33:27 10° N 09:39:52 82° W 09:46:15 10° S
Landsat 5 3.5 09:40:33 10° SSE 09:45:03 87° WSW 09:49:35 10° NNW
Lacrosse 5 4.1 09:45:25 12° NW 09:46:09 12° NNW 09:48:17 10° N
ERS-2 3.1 09:44:05 10° SSE 09:47:36 47° ENE 09:51:08 10° N
PAYLOAD A 3.6 09:43:49 10° N 09:48:31 84° WNW 09:50:29 35° SSW
Cosmos 540 Rocket 4.3 09:45:06 10° S 09:50:02 49° ESE 09:55:01 10° NNE
Cosmos 990 Rocket 4.5 09:45:56 10° N 09:51:05 61° ENE 09:56:14 10° SSE
Cosmos 468 Rocket 3.9 09:50:04 43° SW 09:51:42 67° WNW 09:56:58 10° NNE
X-37B 2.7 09:51:10 20° N 09:51:46 21° NNE 09:54:17 10° ENE
ALOS 3.6 09:56:43 10° NNE 10:01:06 40° E 10:05:28 10° SSE
Cosmos 1484 Rocket 4.3 09:57:28 10° NNE 10:01:13 38° E 10:04:57 10° SSE
Cosmos 1536 3.3 10:03:59 10° N 10:08:01 62° E 10:12:02 10° SSE
Cosmos 1727 Rocket 4.0 10:03:52 10° SSW 10:10:06 59° W 10:16:21 10° N
Meteor 1-31 Rocket 4.1 10:09:08 10° NNE 10:12:46 41° E 10:16:25 10° S
Meteor 1-11 Rocket 3.6 10:09:47 10° NNW 10:15:32 77° W 10:21:07 10° S
Cosmos 2100 Rocket 4.2 10:10:09 10° N 10:16:33 77° E 10:22:53 10° S
Cosmos 1812 4.5 10:21:50 17° NW 10:21:50 17° NW 10:23:31 10° NNW
deb Chang Zheng 4 3.4 10:17:20 10° NNE 10:21:39 86° W 10:25:53 10° SSW
Meteor 1-27 Rocket 3.9 10:16:00 10° SSW 10:21:49 59° W 10:27:41 10° N
SL-8 R/B 3.8 10:17:55 13° NW 10:22:07 77° NE 10:26:53 10° ESE
Cosmos 2360 Rocket 2.2 10:18:51 10° SSW 10:24:31 89° ESE 10:30:13 10° NNE
ADEOS Rocket 3.1 10:19:56 10° S 10:26:58 76° WSW 10:33:16 10° NNW
Cosmos 1898 Rocket 3.4 10:21:44 10° NNW 10:26:58 68° WSW 10:32:12 10° S
ATLAS 2AS CENTAUR R/B 3.9 10:20:28 10° NNW 10:27:31 45° NE 10:34:00 10° ESE
Cosmos 1707 Rocket 4.1 10:26:34 17° SW 10:29:19 35° WNW 10:33:20 10° NNW
Cosmos 1666 3.0 10:26:42 10° NNW 10:30:18 41° W 10:33:51 10° SSW
Cosmos 1459 Rocket 3.9 10:25:31 10° N 10:31:36 88° W 10:37:38 10° S
Cosmos 2123 Rocket 4.4 10:27:23 10° S 10:33:33 70° E 10:39:48 10° NNE
SAR-Lupe-4 3.6 10:31:52 10° SSE 10:35:26 86° ENE 10:39:02 10° NNW
Cosmos 858 Rocket 4.4 10:32:14 10° NNW 10:37:26 78° WSW 10:42:36 10° S
Cosmos 2208 Rocket 3.9 10:32:36 10° SSW 10:37:50 72° WNW 10:43:03 10° NNE
FENGYUN 3A 3.6 10:32:37 10° N 10:38:02 82° WNW 10:43:26 10° SSW
USA 234 3.3 10:32:29 10° SSE 10:38:56 62° SW 10:45:24 10° NW
Cosmos 2322 Rocket 2.9 10:37:25 14° WSW 10:41:42 34° WNW 10:46:52 10° N
Cosmos 2263 Rocket 2.9 10:40:57 10° NW 10:45:49 30° WSW 10:50:42 10° SSW
SL-4 R/B 3.5 10:43:55 14° W 10:47:08 29° NNW 10:51:19 10° NNE
SAR-Lupe-1 4.0 10:44:04 10° S 10:47:35 67° WSW 10:51:09 10° NNW
SL-16 R/B 3.4 10:47:26 13° WSW 10:51:15 24° WNW 10:55:46 10° N
Cosmos 1733 Rocket 3.1 10:47:08 10° NNW 10:51:22 52° W 10:55:32 10° S
Cosmos 1844 Rocket 3.5 10:46:26 10° NNW 10:51:59 56° ENE 10:57:32 10° SE
Cosmos 1937 Rocket 3.5 10:47:20 10° NNW 10:52:20 54° WSW 10:57:19 10° S
Cosmos 1814 Rocket 4.2 10:50:22 10° SW 10:55:23 49° WNW 11:00:29 10° N
ADEOS 4.0 10:51:26 10° N 10:56:17 40° WNW 11:01:07 10° SW
Cosmos 44 Rocket 3.8 10:51:58 10° WSW 10:56:20 38° NW 11:00:50 10° NNE
Cosmos 841 Rocket 4.1 10:51:48 10° SW 10:56:36 37° WNW 11:01:29 10° N
CZ-2C R/B 3.9 10:55:28 10° NNW 10:59:10 20° WNW 11:02:52 10° WSW
Cosmos 1862 Rocket 4.3 10:59:37 10° SW 11:03:33 32° WNW 11:07:28 10° NNW
Gbstr 26 Del rocket 4.3 10:56:18 10° NW 11:04:09 76° SW 11:10:49 10° SE
Cosmos 2173 Rocket 4.3 10:58:36 10° NNW 11:04:36 46° W 11:10:37 10° SSW
Cosmos 1975 4.1 11:00:59 10° N 11:04:52 46° E 11:08:42 10° SSE
SJ-12 3.9 11:00:57 10° N 11:05:03 69° WNW 11:09:10 10° SSW
CZ-4B R/B 2.4 11:03:47 10° SSW 11:06:17 22° W 11:08:50 10° NW
SJ 16-02 3.1 11:06:55 10° WNW 11:08:20 11° W 11:09:44 10° WSW
Cosmos 1743 2.8 11:06:04 10° NNW 11:09:47 55° W 11:13:30 10° S
